Location: Red Bud (historical)
(37.7759°N, 88.4053°W)
Time: 23:27:54
(UTC+00:00)

H-2A R/B - Pass Details

Date: 29 October 2020
Orbit: 577 x 656 km, 98.5° (Epoch: 28 November)

Event Time Altitude Azimuth Distance (km) Brightness Sun altitude
Rises 23:30:40 0° 1° (N) 2,824 5.3 -7.2°
Reaches altitude 10° 23:33:02 10° 350° (N) 1,910 4.6 -7.6°
Maximum altitude 23:36:36 29° 290° (WNW) 1,070 4.0 -8.3°
Drops below altitude 10° 23:40:09 10° 230° (SW) 1,883 5.6 -9.0°
Sets 23:42:28 0° 219° (SW) 2,776 6.3 -9.4°
